Crescent City, CA

4:47 AM PDT on July 22, 2017 (GMT -0700)
McNamara

Weather History for KCEC - October, 2012

Change the Weather History Date:

Monday, October 1, 2012

  Actual Average Record
Temperature  
Mean Temperature 59 °F 54 °F  
Max Temperature 69 °F 61 °F 81 °F (1961)
Min Temperature 48 °F 47 °F 34 °F (1950)
Degree Days  
Heating Degree Days 7 11  
Month to date heating degree days 11  
Since 1 July heating degree days 815  
Cooling Degree Days 0 0  
Month to date cooling degree days 0  
Year to date cooling degree days 0  
Growing Degree Days 8 (Base 50)    
Moisture  
Dew Point 51 °F    
Average Humidity 80    
Maximum Humidity 100    
Minimum Humidity 59    
Precipitation  
Precipitation 0.00 in 0.06 in 1.84 in (1997)
Month to date precipitation 0.00 0.06  
Year to date precipitation 44.15 38.85  
Since 1 July precipitation 0.77  
Snow  
Snow 0.00 in - - ()
Month to date snowfall 0.0  
Since 1 July snowfall 0.0  
Since 1 September snowfall 0.0  
Snow Depth -    
Sea Level Pressure  
Sea Level Pressure 29.99 in    
Wind  
Wind Speed 3 mph (NW)    
Max Wind Speed 9 mph    
Max Gust Speed 12 mph    
Visibility 4 miles    
Events Fog    
T = Trace of Precipitation, MM = Missing Value Source: NWS Daily Summary

Daily Weather History Graph

Daily Weather History Graph

Search for Another Location

Airport or City:

Trip Planner

Search our weather history database for the weather conditions in past years. The results will help you decide how hot, cold, wet, or windy it might be!

Date:

Astronomy

Oct. 01, 2012 Rise Set
Actual Time 7:14 AM PDT 6:57 PM PDT
Civil Twilight 6:46 AM PDT 7:25 PM PDT
Nautical Twilight 6:14 AM PDT 7:57 PM PDT
Astronomical Twilight 5:41 AM PDT 8:30 PM PDT
Moon 7:35 PM PDT (10/1) 8:51 AM PDT (10/1)
Length of Visible Light 12h 38m
Length of Day
11h 43m
Full, 97% of the Moon is Illuminated
Oct 1
Full
Oct 8
Last Quarter
Oct 15
New
Oct 21
First Quarter
Oct 29
Full

Hourly Weather History & Observations

Time (PDT) Temp. Dew Point Humidity Pressure Visibility Wind Dir Wind Speed Gust Speed Precip Events Conditions
12:56 AM 48.9 °F 48.0 °F 97% 30.01 in 2.0 mi Calm Calm - N/A   Clear
12:58 AM 48.2 °F 46.4 °F 93% 30.01 in 1.2 mi Calm Calm - N/A   Clear
1:01 AM 48.2 °F 48.2 °F 100% 30.01 in 0.8 mi NW 3.5 mph - N/A   Mist
1:23 AM 50.0 °F 48.2 °F 94% 30.00 in 1.5 mi Calm Calm - N/A   Mostly Cloudy
1:36 AM 51.8 °F 48.2 °F 88% 30.00 in 3.0 mi Calm Calm - N/A   Mostly Cloudy
1:49 AM 50.0 °F 48.2 °F 94% 30.00 in 4.0 mi Calm Calm - N/A   Scattered Clouds
1:56 AM 50.0 °F 48.0 °F 93% 30.01 in 5.0 mi Calm Calm - N/A   Partly Cloudy
3:56 AM 51.1 °F 48.9 °F 92% 29.99 in 4.0 mi Calm Calm - N/A   Clear
4:56 AM 50.0 °F 48.0 °F 93% 29.99 in 5.0 mi Calm Calm - N/A   Clear
5:31 AM 48.2 °F 46.4 °F 93% 29.99 in 1.8 mi Calm Calm - N/A   Clear
5:36 AM 48.2 °F 48.2 °F 100% 29.99 in 0.8 mi NNW 4.6 mph - N/A   Mist
5:50 AM 48.2 °F 46.4 °F 93% 29.99 in 1.2 mi NNW 3.5 mph - N/A   Partly Cloudy
5:56 AM 48.9 °F 46.9 °F 93% 29.99 in 1.2 mi NNW 4.6 mph - N/A   Partly Cloudy
6:03 AM 48.2 °F 46.4 °F 93% 29.99 in 0.8 mi NNW 4.6 mph - N/A   Mist
6:15 AM 50.0 °F 48.2 °F 94% 29.99 in 1.2 mi NNW 3.5 mph - N/A   Partly Cloudy
6:25 AM 50.0 °F 48.2 °F 94% 29.99 in 2.0 mi North 3.5 mph - N/A   Partly Cloudy
6:37 AM 48.2 °F 48.2 °F 100% 29.99 in 3.0 mi Calm Calm - N/A   Clear
6:56 AM 48.9 °F 48.0 °F 97% 30.00 in 3.0 mi Calm Calm - N/A   Clear
7:29 AM 48.2 °F 46.4 °F 93% 30.00 in 2.5 mi Calm Calm - N/A   Clear
7:40 AM 48.2 °F 46.4 °F 93% 30.00 in 3.0 mi Calm Calm - N/A   Clear
7:56 AM 51.1 °F 48.9 °F 92% 30.01 in 4.0 mi NNE 3.5 mph - N/A   Clear
8:56 AM 62.1 °F 57.9 °F 86% 30.01 in 6.0 mi Calm Calm - N/A   Clear
9:11 AM 62.6 °F 57.2 °F 82% 30.01 in 1.5 mi WNW 3.5 mph - N/A   Clear
9:13 AM 60.8 °F 57.2 °F 88% 30.01 in 1.0 mi WNW 3.5 mph - N/A   Mist
9:21 AM 60.8 °F 55.4 °F 82% 30.02 in 0.5 mi NW 4.6 mph - N/A Fog Fog
9:34 AM 60.8 °F 55.4 °F 82% 30.02 in 1.2 mi NW 6.9 mph - N/A   Partly Cloudy
9:42 AM 60.8 °F 55.4 °F 82% 30.02 in 2.0 mi NW 4.6 mph - N/A   Haze
9:56 AM 62.1 °F 55.9 °F 80% 30.02 in 2.5 mi NW 5.8 mph - N/A   Haze
10:09 AM 62.6 °F 55.4 °F 77% 30.03 in 3.0 mi WNW 3.5 mph - N/A   Haze
11:56 AM 64.9 °F 55.0 °F 70% 30.04 in 6.0 mi NW 5.8 mph - N/A   Haze
2:56 PM 68.0 °F 54.0 °F 61% 29.99 in 9.0 mi NNW 8.1 mph - N/A   Clear
3:56 PM 63.0 °F 53.1 °F 70% 29.99 in 8.0 mi NW 8.1 mph - N/A   Clear
4:56 PM 63.0 °F 53.1 °F 70% 29.98 in 7.0 mi NW 5.8 mph - N/A   Clear
5:56 PM 60.1 °F 52.0 °F 75% 29.97 in 6.0 mi NW 4.6 mph - N/A   Haze
6:56 PM 55.9 °F 51.1 °F 84% 29.96 in 2.5 mi NNW 3.5 mph - N/A   Haze
7:05 PM 55.4 °F 51.8 °F 88% 29.96 in 1.2 mi Calm Calm - N/A   Haze
7:20 PM 57.2 °F 51.8 °F 82% 29.96 in 2.0 mi Calm Calm - N/A   Haze
7:30 PM 57.2 °F 51.8 °F 82% 29.96 in 5.0 mi Calm Calm - N/A   Haze
7:56 PM 55.0 °F 50.0 °F 83% 29.97 in 9.0 mi Calm Calm - N/A   Clear
8:35 PM 55.4 °F 50.0 °F 82% 29.97 in 2.5 mi Calm Calm - N/A   Haze
8:42 PM 53.6 °F 48.2 °F 82% 29.96 in 6.0 mi SE 3.5 mph - N/A   Haze
9:56 PM 55.9 °F 52.0 °F 87% 29.97 in 10.0 mi ESE 4.6 mph - N/A   Clear
10:56 PM 53.1 °F 51.1 °F 93% 29.98 in 8.0 mi NW 6.9 mph - N/A   Clear
11:03 PM 51.8 °F 48.2 °F 88% 29.98 in 2.5 mi NW 4.6 mph - N/A   Scattered Clouds
11:27 PM 53.6 °F 51.8 °F 94% 29.98 in 4.0 mi North 4.6 mph - N/A   Scattered Clouds
11:56 PM 53.1 °F 51.1 °F 93% 29.98 in 6.0 mi Calm Calm - N/A   Clear